Temp
5 5 5 5 4 4 4 4 4 4 3 4 3 5 6 6 5 5 5 7 7 6
5 5 5 5 4 4 4 4 4 4 4 4 3 3 4 4 4 5 5 4 5 5
5 5 5 4 4 4 3 3 4 4 3 3 3 4 4 4 4 4 4 4 4 4
5 5 4 4 4 3 3 3 2 2 3 3 3 3 3 3 2 3 3 3 3 3
5 4 4 4 3 3 2 2 2 1 1 1 1 1 1 1 2 2 1 1 2 2
5 4 4 3 3 2 2 2 2 1 1 1 1 1 1 1 0 1 1 1 1 1
5 4 4 3 2 2 1 1 1 1 1 1 1 0 1 0 0 0 0 0 0 1
5 4 3 3 2 1 1 1 -0 -0 -0 0 0 0 1 0 0 -0 -0 -0 0 0
4 4 3 2 2 1 1 1 0 0 -0 -0 -0 -0 1 1 0 0 -0 -0 -0 -0
4 4 3 2 1 1 1 0 -0 -0 -0 -0 -0 -0 0 1 0 0 -0 -1 -1 -1
4 3 2 2 1 1 0 -0 -0 -1 -1 -1 -1 -1 0 -0 -1 -1 -1 -1 -1 -1
4 3 2 1 1 0 -0 -1 -1 -1 -1 -1 -1 -1 -1 -1 -1 -2 -2 -2 -2 -2
3 2 2 1 0 -0 -1 -1 -1 -1 -2 -2 -2 -2 -2 -2 -2 -2 -2 -2 -2 -2
3 2 1 0 -0 -1 -1 -1 -2 -2 -2 -2 -2 -2 -3 -2 -2 -2 -2 -2 -3 -3
Height
795 793 790 788 786 783 779 775 773 770 766 760 756 752 747 742 740 738 734 729 729 744
796 794 791 788 786 784 781 778 775 772 768 764 761 755 751 747 744 741 738 739 728 747
795 793 791 788 786 783 781 779 776 772 769 766 764 760 756 752 750 747 740 742 737 752
795 792 790 788 786 784 782 779 776 774 770 766 763 760 756 754 753 751 749 745 746 748
793 791 789 787 785 783 781 779 777 774 772 769 767 764 761 757 752 749 748 749 750 748
789 789 787 786 784 782 780 778 776 773 771 769 767 764 760 759 758 756 753 750 749 749
787 786 785 784 782 780 778 776 775 773 771 769 767 766 764 761 757 755 753 752 752 751
785 784 783 782 781 779 777 776 774 772 771 769 767 765 764 762 761 759 757 755 754 752
780 781 781 780 779 778 776 774 772 771 769 768 766 764 763 761 759 757 755 755 755 754
776 777 777 777 777 776 774 773 771 770 769 768 766 765 763 761 759 757 756 754 753 750
772 773 774 773 773 773 772 771 771 769 768 766 765 763 762 760 758 756 754 752 749 747
768 769 769 769 769 769 769 769 769 768 767 765 764 762 760 758 755 753 751 750 748 747
764 765 766 766 766 766 766 766 766 765 765 763 762 761 759 757 754 751 749 746 745 744
760 761 762 763 763 763 763 763 763 761 761 761 760 759 757 755 752 749 746 744 742 740
Wind_Speed
9 11 12 13 15 17 18 17 17 17 18 18 17 19 19 20 18 16 16 16 16 10
8 9 10 10 11 12 14 16 16 16 16 17 18 16 15 17 16 15 17 15 18 10
5 6 8 10 11 12 12 12 12 13 14 15 15 16 15 16 14 13 16 14 13 2
4 6 7 8 10 11 12 14 14 13 13 13 12 15 16 15 15 14 13 13 9 8
5 5 7 8 10 11 12 13 14 12 11 10 8 12 14 15 15 15 15 14 11 12
6 5 6 8 9 10 11 13 13 13 13 11 8 10 12 13 12 10 10 10 10 10
7 5 5 7 8 10 10 10 10 11 12 13 11 10 11 11 12 12 11 10 9 9
8 6 6 7 8 9 8 9 9 10 9 11 9 11 12 11 11 11 11 10 10 9
11 8 6 6 7 7 7 7 8 8 9 8 7 7 8 8 9 10 11 12 12 10
13 10 7 6 7 6 6 6 7 7 9 9 8 8 8 7 7 7 9 10 12 13
14 10 8 7 7 6 6 7 8 8 8 8 7 7 8 7 7 8 9 11 12 13
14 11 9 8 7 5 6 7 8 9 9 9 9 8 9 9 11 12 12 11 9 10
15 12 10 9 7 6 6 8 9 8 8 7 9 9 10 11 13 13 13 11 12 14
15 12 9 8 7 7 7 8 9 9 8 9 9 12 11 11 12 12 14 12 16 17
Wind_Direction
28 26 22 14 10 14 17 15 9 4 1 10 19 21 27 40 45 46 59 74 55 356
17 20 23 21 20 19 17 14 9 13 12 14 16 17 26 40 40 49 54 54 71 13
3 7 10 8 12 16 15 16 11 7 12 16 19 23 23 32 38 41 53 50 65 44
337 354 1 7 6 5 2 4 9 8 3 6 18 23 24 26 24 33 39 47 57 48
303 330 350 358 0 357 355 354 356 2 11 22 30 22 33 30 24 29 33 30 28 23
278 311 337 348 351 350 349 350 352 355 4 13 18 16 21 24 33 39 36 34 26 15
259 286 314 329 337 343 350 355 359 357 354 358 2 16 13 11 18 25 27 24 16 7
251 264 291 314 329 339 346 355 359 359 1 358 3 11 358 359 10 18 17 18 15 13
237 250 275 307 324 332 340 349 351 352 356 2 6 1 351 346 348 360 3 4 2 356
231 241 263 291 308 314 325 335 342 345 341 342 347 346 341 335 339 340 347 347 345 345
226 235 255 277 293 297 308 323 328 327 326 328 334 341 342 344 351 344 339 336 335 332
223 230 247 265 273 271 290 305 317 320 317 318 325 330 333 330 330 333 334 338 338 337
217 227 243 256 253 265 286 298 305 307 308 306 310 316 324 324 325 323 325 331 325 327
211 224 240 244 246 263 278 286 297 300 308 309 307 313 317 320 320 319 317 317 321 324